| time (UTC) | temp C | wind direction | speed KPH | gust KPH | rain 1hr cm | rain 24hr cm | rain mn cm | humidity % | barometer mb |
| 20260903211845 | 20 | 0 | 1.6 | 0.0 | 0.00 | 0.00 | 0.00 | 71 | |
| 20260903210815 | 20 | 0 | 6.4 | 0.0 | 0.00 | 0.00 | 0.00 | 69 | |
| 20260903205745 | 21 | 0 | 3.2 | 0.0 | 0.00 | 0.00 | 0.00 | 69 | |
| 20260903204715 | 20 | 0 | 3.2 | 0.0 | 0.00 | 0.00 | 0.00 | 69 | |
| 20260903203715 | 20 | 0 | 1.6 | 0.0 | 0.00 | 0.00 | 0.00 | 69 | |
| 20260903202645 | 20 | 0 | 3.2 | 0.0 | 0.00 | 0.00 | 0.00 | 69 | |
| 20260903201615 | 20 | 0 | 8.0 | 0.0 | 0.00 | 0.00 | 0.00 | 69 | |
| 20260903200615 | 20 | 0 | 6.4 | 0.0 | 0.00 | 0.00 | 0.00 | 71 | |
| 20260903195615 | 20 | 0 | 4.8 | 0.0 | 0.00 | 0.00 | 0.00 | 70 | |
| 20260903194545 | 20 | 0 | 8.0 | 0.0 | 0.00 | 0.00 | 0.00 | 69 | |
| 20260903193545 | 20 | 0 | 8.0 | 0.0 | 0.00 | 0.00 | 0.00 | 68 | |
| 20260903192545 | 21 | 0 | 9.7 | 0.0 | 0.00 | 0.00 | 0.00 | 67 | |
| 20260903191515 | 21 | 0 | 3.2 | 0.0 | 0.00 | 0.00 | 0.00 | 67 | |
| 20260903190515 | 20 | 0 | 6.4 | 0.0 | 0.00 | 0.00 | 0.00 | 66 | |
| 20260903185515 | 20 | 0 | 6.4 | 0.0 | 0.00 | 0.00 | 0.00 | 67 | |
| 20260903184515 | 20 | 0 | 9.7 | 0.0 | 0.00 | 0.00 | 0.00 | 66 | |
| 20260903183515 | 20 | 0 | 6.4 | 0.0 | 0.00 | 0.00 | 0.00 | 66 | |
| 20260903182445 | 20 | 0 | 6.4 | 0.0 | 0.00 | 0.00 | 0.00 | 66 | |
| 20260903181415 | 20 | 0 | 3.2 | 0.0 | 0.00 | 0.00 | 0.00 | 66 | |
| 20260903180415 | 20 | 0 | 11.3 | 0.0 | 0.00 | 0.00 | 0.00 | 65 | |
| 20260903175345 | 20 | 0 | 6.4 | 0.0 | 0.00 | 0.00 | 0.00 | 66 | |
| 20260903174315 | 19 | 0 | 6.4 | 0.0 | 0.00 | 0.00 | 0.00 | 66 | |
| 20260903173315 | 19 | 0 | 8.0 | 0.0 | 0.00 | 0.00 | 0.00 | 66 | |
| 20260903172315 | 19 | 0 | 3.2 | 0.0 | 0.00 | 0.00 | 0.00 | 67 | |
| 20260903171245 | 18 | 0 | 4.8 | 0.0 | 0.00 | 0.00 | 0.00 | 69 | |
| 20260903170245 | 18 | 0 | 3.2 | 0.0 | 0.00 | 0.00 | 0.00 | 69 | |
| 20260903165215 | 17 | 0 | 4.8 | 0.0 | 0.00 | 0.00 | 0.00 | 70 | |
| 20260903164215 | 17 | 0 | 3.2 | 0.0 | 0.00 | 0.00 | 0.00 | 70 | |
| 20260903163145 | 17 | 0 | 1.6 | 0.0 | 0.00 | 0.00 | 0.00 | 71 | |
| 20260903162115 | 17 | 0 | 3.2 | 0.0 | 0.00 | 0.00 | 0.00 | 72 | |
| 20260903161115 | 16 | 0 | 3.2 | 0.0 | 0.00 | 0.00 | 0.00 | 72 | |
| 20260903160045 | 16 | 0 | 3.2 | 0.0 | 0.00 | 0.00 | 0.00 | 73 | |
| 20260903155045 | 16 | 0 | 3.2 | 0.0 | 0.00 | 0.00 | 0.00 | 75 | |
| 20260903154015 | 16 | 0 | 1.6 | 0.0 | 0.00 | 0.00 | 0.00 | 76 | |
| 20260903153015 | 15 | 0 | 0.0 | 0.0 | 0.00 | 0.00 | 0.00 | 77 | |
| 20260903152015 | 15 | 0 | 1.6 | 0.0 | 0.00 | 0.00 | 0.00 | 77 | |
| 20260903151015 | 15 | 0 | 4.8 | 0.0 | 0.00 | 0.00 | 0.00 | 80 | |
| 20260903150015 | 15 | 0 | 1.6 | 0.0 | 0.00 | 0.00 | 0.00 | 81 | |
| 20260903145015 | 14 | 0 | 1.6 | 0.0 | 0.00 | 0.00 | 0.00 | 82 | |
| 20260903143945 | 14 | 0 | 3.2 | 0.0 | 0.00 | 0.00 | 0.00 | 82 | |
| 20260903142915 | 14 | 0 | 1.6 | 0.0 | 0.00 | 0.00 | 0.00 | 82 | |
| 20260903141915 | 14 | 0 | 6.4 | 0.0 | 0.00 | 0.00 | 0.00 | 83 | |
| 20260903140845 | 14 | 0 | 1.6 | 0.0 | 0.00 | 0.00 | 0.00 | 83 | |
| 20260903135815 | 14 | 0 | 1.6 | 0.0 | 0.00 | 0.00 | 0.00 | 83 | |
| 20260903134815 | 14 | 0 | 4.8 | 0.0 | 0.00 | 0.00 | 0.00 | 83 | |
| 20260903133815 | 14 | 0 | 3.2 | 0.0 | 0.00 | 0.00 | 0.00 | 82 | |
| 20260903132745 | 14 | 0 | 3.2 | 0.0 | 0.00 | 0.00 | 0.00 | 82 | |
| 20260903131745 | 14 | 0 | 1.6 | 0.0 | 0.00 | 0.00 | 0.00 | 81 | |
| 20260903130745 | 14 | 0 | 3.2 | 0.0 | 0.00 | 0.00 | 0.00 | 81 | |
| 20260903125715 | 14 | 0 | 8.0 | 0.0 | 0.00 | 0.00 | 0.00 | 80 | |
| 20260903124715 | 14 | 0 | 3.2 | 0.0 | 0.00 | 0.00 | 0.00 | 80 | |
| 20260903123715 | 14 | 0 | 4.8 | 0.0 | 0.00 | 1.37 | 0.00 | 80 | |
| 20260903122645 | 14 | 0 | 3.2 | 0.0 | 0.00 | 1.37 | 0.00 | 80 | |
| 20260903121645 | 15 | 0 | 3.2 | 0.0 | 0.00 | 1.37 | 0.00 | 79 | |
| 20260903120615 | 15 | 0 | 3.2 | 0.0 | 0.00 | 1.37 | 0.00 | 78 | |
| 20260903115615 | 15 | 0 | 3.2 | 0.0 | 0.00 | 1.37 | 0.00 | 77 | |
| 20260903114615 | 15 | 0 | 4.8 | 0.0 | 0.00 | 1.37 | 0.00 | 77 | |
| 20260903113545 | 15 | 0 | 4.8 | 0.0 | 0.00 | 1.37 | 0.00 | 77 | |
| 20260903112545 | 15 | 0 | 3.2 | 0.0 | 0.00 | 1.37 | 0.00 | 77 | |
| 20260903111515 | 15 | 0 | 4.8 | 0.0 | 0.00 | 1.37 | 0.00 | 77 | |
| 20260903110445 | 15 | 0 | 1.6 | 0.0 | 0.00 | 1.37 | 0.00 | 77 | |
| 20260903105415 | 15 | 0 | 3.2 | 0.0 | 0.00 | 1.37 | 0.00 | 77 | |
| 20260903104415 | 15 | 0 | 4.8 | 0.0 | 0.00 | 1.37 | 0.00 | 77 | |
| 20260903103345 | 15 | 0 | 3.2 | 0.0 | 0.00 | 1.37 | 0.00 | 77 | |
| 20260903102345 | 15 | 0 | 3.2 | 0.0 | 0.00 | 1.37 | 0.00 | 77 | |
| 20260903101345 | 15 | 0 | 1.6 | 0.0 | 0.00 | 1.37 | 0.00 | 77 | |
| 20260903100345 | 15 | 0 | 3.2 | 0.0 | 0.00 | 1.37 | 0.00 | 78 | |
| 20260903095315 | 15 | 0 | 3.2 | 0.0 | 0.00 | 1.37 | 0.00 | 78 | |
| 20260903094315 | 15 | 0 | 3.2 | 0.0 | 0.00 | 1.37 | 0.00 | 78 | |
| 20260903093245 | 15 | 0 | 1.6 | 0.0 | 0.00 | 1.37 | 0.00 | 79 | |
| 20260903092451 | 15 | 0 | 1.6 | 0.0 | 0.00 | 1.37 | 0.00 | 79 | |
| 20260903092245 | 15 | 0 | 1.6 | 0.0 | 0.00 | 1.37 | 0.00 | 79 | |
| 20260903091215 | 15 | 0 | 1.6 | 0.0 | 0.00 | 1.37 | 0.00 | 80 | |
| 20260903090215 | 15 | 0 | 1.6 | 0.0 | 0.00 | 1.37 | 0.00 | 80 | |
| 20260903085145 | 15 | 0 | 3.2 | 0.0 | 0.00 | 1.37 | 0.00 | 80 | |
| 20260903084145 | 15 | 0 | 3.2 | 0.0 | 0.00 | 1.37 | 0.00 | 80 | |
| 20260903083145 | 15 | 0 | 1.6 | 0.0 | 0.00 | 1.37 | 0.00 | 80 | |
| 20260903082115 | 15 | 0 | 3.2 | 0.0 | 0.00 | 1.37 | 0.00 | 80 | |
| 20260903081115 | 15 | 0 | 3.2 | 0.0 | 0.00 | 1.37 | 0.00 | 80 | |
| 20260903080045 | 15 | 0 | 1.6 | 0.0 | 0.00 | 1.37 | 0.00 | 80 | |
| 20260903075015 | 15 | 0 | 1.6 | 0.0 | 0.00 | 1.37 | 0.00 | 80 | |
| 20260903074015 | 15 | 0 | 1.6 | 0.0 | 0.00 | 1.37 | 0.00 | 81 | |
| 20260903073015 | 15 | 0 | 3.2 | 0.0 | 0.00 | 1.37 | 0.00 | 82 | |
| 20260903071945 | 13 | 0 | 1.6 | 0.0 | 0.00 | 1.37 | 0.00 | 85 | |
| 20260903070945 | 13 | 0 | 0.0 | 0.0 | 0.00 | 1.37 | 0.00 | 88 | |
| 20260903065945 | 13 | 0 | 0.0 | 0.0 | 0.00 | 1.37 | 1.37 | 88 | |
| 20260903064915 | 13 | 0 | 0.0 | 0.0 | 0.00 | 1.37 | 1.37 | 89 | |
| 20260903063845 | 13 | 0 | 0.0 | 0.0 | 0.00 | 1.37 | 1.37 | 89 | |
| 20260903062815 | 13 | 0 | 0.0 | 0.0 | 0.00 | 1.37 | 1.37 | 89 | |
| 20260903061815 | 13 | 0 | 0.0 | 0.0 | 0.00 | 1.37 | 1.37 | 86 | |
| 20260903060815 | 13 | 0 | 0.0 | 0.0 | 0.00 | 1.37 | 1.37 | 86 | |
| 20260903055745 | 13 | 0 | 0.0 | 0.0 | 0.00 | 1.37 | 1.37 | 86 | |
| 20260903054745 | 13 | 0 | 0.0 | 0.0 | 0.00 | 1.37 | 1.37 | 84 | |
| 20260903053745 | 14 | 0 | 0.0 | 0.0 | 0.00 | 1.37 | 1.37 | 84 | |
| 20260903052715 | 14 | 0 | 0.0 | 0.0 | 0.00 | 1.37 | 1.37 | 82 | |
| 20260903051645 | 15 | 0 | 0.0 | 0.0 | 0.00 | 1.37 | 1.37 | 81 | |
| 20260903050615 | 15 | 0 | 0.0 | 0.0 | 0.00 | 1.37 | 1.37 | 81 | |
| 20260903045615 | 15 | 0 | 0.0 | 0.0 | 0.00 | 1.37 | 1.37 | 80 | |
| 20260903044545 | 15 | 0 | 0.0 | 0.0 | 0.00 | 1.37 | 1.37 | 80 | |
| 20260903043545 | 16 | 0 | 0.0 | 0.0 | 0.00 | 1.37 | 1.37 | 77 | |
| 20260903042545 | 16 | 0 | 0.0 | 0.0 | 0.00 | 1.37 | 1.37 | 77 | |
| 20260903041545 | 16 | 0 | 0.0 | 0.0 | 0.00 | 1.37 | 1.37 | 77 | |
| 20260903040515 | 16 | 0 | 0.0 | 0.0 | 0.00 | 1.37 | 1.37 | 75 | |
| 20260903035446 | 17 | 0 | 0.0 | 0.0 | 0.00 | 1.37 | 1.37 | 75 | |
| 20260903034445 | 17 | 0 | 0.0 | 0.0 | 0.00 | 1.37 | 1.37 | 72 | |
| 20260903033415 | 17 | 0 | 0.0 | 0.0 | 0.00 | 1.37 | 1.37 | 70 | |
| 20260903032345 | 18 | 0 | 0.0 | 0.0 | 0.00 | 1.37 | 1.37 | 69 | |
| 20260903031345 | 18 | 0 | 0.0 | 0.0 | 0.00 | 1.37 | 1.37 | 67 | |
| 20260903030345 | 19 | 0 | 0.0 | 0.0 | 0.00 | 1.37 | 1.37 | 66 | |
| 20260903025315 | 20 | 0 | 0.0 | 0.0 | 0.00 | 1.37 | 1.37 | 64 | |
| 20260903024315 | 20 | 0 | 1.6 | 0.0 | 0.00 | 1.37 | 1.37 | 62 | |
| 20260903023245 | 20 | 0 | 4.8 | 0.0 | 0.00 | 1.37 | 1.37 | 61 | |
| 20260903022215 | 21 | 0 | 3.2 | 0.0 | 0.00 | 1.37 | 1.37 | 60 | |
| 20260903021145 | 21 | 0 | 4.8 | 0.0 | 0.00 | 1.37 | 1.37 | 58 | |
| 20260903020115 | 21 | 0 | 3.2 | 0.0 | 0.00 | 1.37 | 1.37 | 57 | |
| 20260903015115 | 22 | 0 | 1.6 | 0.0 | 0.00 | 1.37 | 1.37 | 56 | |
| 20260903014115 | 22 | 0 | 3.2 | 0.0 | 0.00 | 1.37 | 1.37 | 56 | |
| 20260903013045 | 22 | 0 | 3.2 | 0.0 | 0.00 | 1.37 | 1.37 | 56 | |
| 20260903012015 | 22 | 0 | 11.3 | 0.0 | 0.00 | 1.37 | 1.37 | 56 | |
| 20260903010945 | 22 | 0 | 8.0 | 0.0 | 0.00 | 1.37 | 1.37 | 56 | |
| 20260903005945 | 22 | 0 | 9.7 | 0.0 | 0.00 | 1.37 | 1.37 | 56 | |
| 20260903004945 | 23 | 0 | 11.3 | 0.0 | 0.00 | 1.37 | 1.37 | 55 | |
| 20260903003915 | 23 | 0 | 4.8 | 0.0 | 0.00 | 1.37 | 1.37 | 55 | |
| 20260903002915 | 23 | 0 | 9.7 | 0.0 | 0.00 | 1.37 | 1.37 | 54 | |
| 20260903001845 | 23 | 0 | 4.8 | 0.0 | 0.00 | 1.37 | 1.37 | 54 | |
| 20260903000845 | 23 | 0 | 4.8 | 0.0 | 0.00 | 1.37 | 1.37 | 53 | |
| 20260902235815 | 26 | 0 | 12.9 | 0.0 | 0.00 | 1.37 | 1.37 | 48 | |
| 20260902234745 | 26 | 0 | 9.7 | 0.0 | 0.00 | 1.37 | 1.37 | 48 | |
| 20260902233715 | 25 | 0 | 8.0 | 0.0 | 0.00 | 1.37 | 1.37 | 49 | |
| 20260902232715 | 26 | 0 | 6.4 | 0.0 | 0.00 | 1.37 | 1.37 | 47 | |
| 20260902231645 | 26 | 0 | 8.0 | 0.0 | 0.00 | 1.37 | 1.37 | 47 | |
| 20260902230645 | 26 | 0 | 3.2 | 0.0 | 0.00 | 1.37 | 1.37 | 48 | |
| 20260902225645 | 26 | 0 | 8.0 | 0.0 | 0.00 | 1.37 | 1.37 | 48 | |
| 20260902224615 | 25 | 0 | 3.2 | 0.0 | 0.00 | 1.37 | 1.37 | 50 | |
| 20260902223545 | 24 | 0 | 12.9 | 0.0 | 0.00 | 1.37 | 1.37 | 53 | |
| 20260902222515 | 23 | 0 | 6.4 | 0.0 | 0.00 | 1.37 | 1.37 | 56 | |
| 20260902221515 | 23 | 0 | 4.8 | 0.0 | 0.00 | 1.37 | 1.37 | 57 | |
| 20260902220515 | 23 | 0 | 3.2 | 0.0 | 0.00 | 1.37 | 1.37 | 57 | |
| 20260902215515 | 23 | 0 | 6.4 | 0.0 | 0.00 | 1.37 | 1.37 | 57 | |
| 20260902214445 | 23 | 0 | 9.7 | 0.0 | 0.00 | 1.37 | 1.37 | 58 | |
| 20260902213445 | 22 | 0 | 6.4 | 0.0 | 0.00 | 1.37 | 1.37 | 59 | |
| 20260902212445 | 22 | 0 | 4.8 | 0.0 | 0.00 | 1.37 | 1.37 | 60 |